EHI
3 6 9 9 5 4 6 6 6 6 7 11 15 15 13 10 7 6 6 6 6 6 6 5 4 3 3 3 3 3 3 3 3 3 3 3 3 3 3 3 3 3 3
5 6 10 10 7 5 5 6 6 6 6 9 12 12 10 8 7 6 6 6 6 6 5 4 3 3 3 3 3 3 3 3 3 3 3 3 3 3 3 3 3 3 3
10 8 10 12 10 7 5 4 5 4 5 7 9 8 7 6 6 6 6 6 6 5 4 3 3 3 3 3 3 3 3 3 3 3 3 3 3 3 3 3 3 3 3
13 11 10 12 11 8 5 4 4 3 4 6 7 6 4 4 5 6 6 6 6 5 4 3 3 3 3 3 3 3 3 3 3 3 3 3 3 3 3 3 4 4 4
13 11 11 12 11 9 6 4 3 3 4 5 5 4 3 3 4 4 4 4 4 5 4 3 3 3 3 3 3 3 3 3 3 2 2 3 3 3 3 4 5 5 4
11 11 12 13 11 9 7 5 3 3 4 5 6 4 3 3 3 3 3 3 3 4 3 3 3 3 3 3 3 3 3 3 2 1 1 2 3 3 3 4 5 4 4
11 11 13 13 11 9 7 5 4 3 4 5 6 5 4 3 3 3 3 3 3 3 3 3 3 3 3 3 3 3 3 3 1 0 1 2 3 3 3 3 4 3 3
13 12 12 12 10 8 7 6 5 3 3 4 6 5 4 3 3 3 3 3 3 3 3 3 3 3 3 3 3 3 3 2 1 0 1 3 3 3 3 3 3 3 3
13 13 12 10 7 6 7 7 6 4 3 4 5 4 3 3 3 3 3 3 3 3 3 3 3 3 3 3 3 3 3 2 1 1 2 3 3 3 3 3 3 3 3
13 13 11 8 5 5 5 6 5 4 3 4 4 4 3 3 3 3 3 3 3 3 3 3 3 3 3 3 3 3 3 1 1 2 3 3 3 3 3 3 3 3 3
11 11 9 7 4 3 3 4 4 3 3 3 4 3 3 3 3 3 3 3 3 3 3 3 3 4 3 3 3 3 2 0 1 2 3 4 4 4 3 3 3 3 3
11 9 7 6 4 3 3 3 3 3 3 3 3 3 2 2 3 3 3 3 3 3 3 3 4 4 3 2 2 2 1 0 1 2 4 6 7 6 4 3 3 3 3
12 9 6 5 4 3 3 3 3 3 3 3 3 3 2 1 2 3 3 3 3 2 2 3 3 2 1 1 1 1 0 0 1 2 5 8 9 8 6 4 3 3 3
13 9 6 5 4 3 3 3 3 3 3 3 3 3 2 1 2 3 2 2 1 1 1 1 1 0 0 0 0 0 0 0 1 2 5 8 10 9 8 6 4 3 3
17 12 7 4 3 3 3 3 3 3 3 3 3 3 2 2 2 2 1 1 0 0 0 1 1 0 0 0 0 0 0 0 1 2 4 7 9 9 7 5 4 3 3
28 21 12 7 5 4 3 3 3 3 3 3 3 3 3 2 2 2 1 1 0 0 1 2 1 0 0 0 0 0 0 0 0 1 3 5 6 6 5 4 3 3 3
46 39 27 18 12 9 6 5 5 4 4 4 3 3 3 3 2 2 2 1 0 0 1 2 1 0 0 0 0 0 0 0 0 0 1 3 4 4 3 3 3 3 3
65 60 49 37 28 20 13 10 9 8 7 6 4 4 4 3 3 3 2 1 0 1 2 2 1 0 0 0 0 0 0 0 0 0 1 2 3 3 3 4 4 5 4
74 73 66 56 45 35 26 20 16 14 12 9 7 6 6 5 4 3 1 0 1 2 3 3 2 1 0 0 0 0 0 0 0 0 0 1 1 2 3 4 6 7 7
75 76 75 67 57 47 38 31 26 21 18 15 12 11 10 9 6 4 1 1 2 3 3 3 2 1 0 0 0 0 0 0 0 0 0 0 0 1 2 3 4 5 6
77 78 79 72 62 53 47 39 32 27 23 20 17 16 15 14 11 6 3 3 3 3 3 3 2 1 0 0 0 0 0 0 0 0 0 0 0 0 1 1 1 2 2
78 79 79 73 63 54 48 41 33 28 25 23 23 22 20 19 16 11 6 4 3 2 3 3 1 0 0 0 0 0 0 0 0 0 0 0 0 0 1 0 0 0 0
78 76 74 71 64 54 48 41 34 30 29 27 26 27 27 24 21 16 9 5 3 2 2 2 1 0 0 0 0 0 0 0 0 0 0 0 0 0 1 1 0 0 1
75 72 70 69 64 56 49 43 38 33 30 26 24 26 29 28 24 18 11 6 3 1 1 1 1 1 0 0 0 0 0 0 0 0 0 0 0 0 1 2 1 1 2
72 70 68 68 64 57 50 44 40 33 25 19 18 21 25 27 24 21 15 8 4 2 1 1 1 1 0 0 0 0 0 0 0 0 0 0 0 0 1 2 2 1 2
71 70 68 66 62 56 50 45 41 34 22 15 16 18 22 24 24 25 20 11 7 4 2 1 1 1 0 0 0 0 0 0 0 0 0 0 0 0 0 1 2 1 1
Wind_Speed
5 7 14 16 16 17 17 18 18 18 19 19 19 20 19 19 19 18 18 18 18 18 17 17 17 17 18 17 17 17 18 18 17 18 18 17 17 16 16 17 16 12 17
9 9 15 16 17 17 17 17 18 18 18 18 18 19 19 18 18 18 18 18 18 17 17 17 17 17 17 17 17 17 17 17 17 17 17 15 15 15 15 16 15 11 16
11 9 13 16 17 17 16 17 17 17 17 17 18 18 18 18 18 18 18 17 17 17 17 17 17 17 16 16 16 16 16 16 16 17 15 8 10 15 15 16 16 16 16
12 8 12 17 17 17 16 16 17 17 17 17 17 17 17 17 17 17 17 17 17 17 16 16 16 16 15 15 14 14 15 15 16 15 7 6 7 14 15 15 15 15 15
10 8 12 18 17 17 17 16 16 16 16 17 16 17 17 17 17 17 17 16 16 16 16 15 15 14 14 13 12 12 13 14 15 12 6 5 5 13 15 15 15 15 15
10 8 12 18 17 17 17 16 16 16 16 16 16 16 16 16 16 16 16 16 15 15 14 14 13 12 12 11 10 11 12 14 12 7 6 5 5 12 14 14 15 15 14
10 8 11 18 17 17 16 16 16 16 16 16 16 16 16 16 16 16 16 15 14 14 13 13 12 11 10 10 9 10 12 14 9 6 5 5 6 12 14 14 14 14 14
13 9 10 17 17 16 16 16 16 15 15 15 15 15 15 15 15 15 15 14 14 13 12 11 11 9 9 8 9 10 12 13 10 8 6 5 9 12 13 14 14 14 14
12 10 8 9 12 15 16 15 15 15 15 15 15 15 15 15 15 14 14 13 13 12 11 10 9 8 8 7 8 8 10 13 7 5 8 5 10 12 13 13 13 13 13
10 9 8 7 6 7 9 14 15 15 14 14 14 15 14 14 14 14 12 12 12 11 10 9 8 7 7 6 7 9 12 11 5 5 4 6 12 13 13 13 13 13 12
11 8 8 8 6 6 6 11 12 13 13 12 11 14 12 6 6 7 10 11 11 10 9 8 6 5 5 5 6 9 9 4 5 4 3 9 12 12 12 12 12 12 12
13 10 8 9 8 7 7 6 4 5 5 5 4 6 4 4 4 6 10 11 10 9 8 6 5 3 3 2 3 6 3 5 4 3 5 12 11 12 12 12 12 12 11
14 13 10 10 9 7 5 5 3 3 3 4 5 5 4 3 3 3 3 4 4 5 3 2 2 1 1 1 2 2 4 4 3 3 5 12 11 12 12 12 11 11 11
14 13 12 11 9 7 7 5 4 4 3 3 5 6 5 3 3 3 2 2 2 1 2 1 1 1 1 1 2 3 4 3 3 3 5 11 10 11 12 11 11 11 10
14 14 13 11 10 9 7 5 6 5 5 5 4 5 6 5 5 4 3 3 2 2 2 2 1 1 1 2 3 4 5 5 5 4 4 11 10 10 11 11 11 11 10
15 14 13 12 11 9 8 6 6 5 5 5 5 6 7 5 5 4 4 3 3 3 3 2 2 2 1 2 3 5 5 5 5 5 3 6 10 10 10 11 11 10 10
14 13 13 13 11 11 9 8 7 6 6 5 5 6 6 6 6 5 4 4 3 3 3 2 2 2 2 2 3 4 4 5 5 5 4 3 4 9 10 10 10 10 10
13 13 13 13 11 10 8 7 6 6 6 5 5 5 7 7 7 5 4 4 4 3 3 3 2 2 1 2 2 3 3 4 5 5 4 4 4 4 7 11 11 10 11
14 13 12 10 11 9 8 6 6 5 5 5 5 5 6 7 7 5 4 4 4 3 3 3 2 2 2 2 2 2 3 3 4 5 5 6 5 4 4 8 11 11 12
12 11 10 10 10 8 6 5 4 4 4 4 5 6 7 6 7 6 4 5 5 3 3 2 2 2 2 2 2 2 2 2 3 4 5 5 5 6 5 5 5 7 12
11 11 11 11 9 8 6 5 4 4 4 4 4 6 7 7 7 6 4 4 4 4 4 4 3 3 2 2 2 1 2 1 2 3 3 4 5 6 5 6 4 4 5
13 12 11 12 11 9 6 5 4 4 3 4 4 5 6 7 7 7 5 5 5 4 4 4 4 3 2 3 3 2 1 3 2 3 3 4 5 4 6 7 6 6 5
14 14 12 12 11 9 8 5 4 3 2 2 3 4 6 7 7 6 7 6 5 5 4 4 4 5 3 2 3 4 4 4 2 2 3 4 4 4 5 5 7 7 8
14 12 10 11 10 9 9 8 8 6 5 5 4 4 5 6 7 7 7 7 6 5 5 5 5 4 4 3 2 2 3 4 3 1 2 3 4 5 6 6 7 7 8
13 13 11 11 10 10 10 10 8 6 5 3 3 5 5 5 6 7 7 7 6 5 6 5 5 5 4 4 3 2 2 1 2 3 2 3 2 4 5 6 5 6 7
10 11 11 11 11 11 11 10 9 8 7 6 6 6 5 4 4 6 7 7 7 6 6 6 5 6 5 5 4 3 3 3 3 3 3 3 3 4 4 4 5 6 6
Wind_Direction
134 134 123 116 111 107 104 101 100 99 98 97 98 99 101 103 104 105 105 105 105 104 103 104 105 106 106 107 108 110 111 111 112 114 113 112 112 111 111 110 109 107 109
139 135 125 119 116 111 108 105 104 103 102 102 102 104 105 106 107 107 107 106 105 105 104 105 105 106 107 108 110 112 112 112 111 111 110 111 111 111 111 111 111 113 112
131 130 127 123 119 116 113 111 108 108 107 107 106 107 108 108 108 109 109 107 107 106 106 106 107 107 108 109 112 113 113 112 109 107 104 99 108 112 113 114 113 111 111
130 129 130 126 123 120 118 116 113 112 111 110 109 110 110 110 109 109 110 109 109 108 107 107 109 109 110 111 113 114 114 113 110 108 97 97 107 114 114 114 114 113 112
124 126 134 128 126 123 121 119 117 115 115 114 113 113 113 113 112 112 113 112 111 111 110 110 110 109 110 112 112 112 114 115 110 104 91 86 98 117 117 116 116 115 115
125 128 135 130 128 127 125 123 123 121 119 118 117 115 115 115 116 116 115 114 113 113 112 111 110 109 109 109 108 108 111 115 107 102 95 93 101 118 118 117 116 116 115
130 131 135 133 132 130 129 128 127 126 123 122 121 119 119 118 118 118 117 116 115 114 113 111 110 110 107 102 102 107 113 113 108 103 98 96 109 117 118 119 117 117 116
136 135 137 137 135 134 132 131 130 130 128 126 124 123 122 122 121 120 119 119 119 118 117 117 116 115 107 99 95 103 115 117 117 114 104 106 120 118 119 120 118 119 118
137 136 135 139 138 138 136 134 134 134 133 131 129 128 127 126 126 124 123 124 123 123 124 125 124 119 110 103 97 104 118 118 113 120 120 115 123 123 122 121 121 120 121
137 138 136 134 132 135 137 138 139 138 138 137 136 134 133 132 131 130 128 129 129 130 131 131 128 123 116 107 100 107 117 114 112 110 115 130 130 129 128 128 127 126 126
143 145 142 140 138 134 139 146 144 145 145 143 142 141 132 121 124 130 137 137 136 136 135 135 132 125 116 105 100 108 112 111 116 116 125 136 136 134 133 132 131 131 130
155 158 155 151 151 153 152 137 138 142 140 135 136 130 123 127 139 140 149 145 144 142 141 144 144 130 107 91 95 100 106 115 116 127 140 142 141 139 138 137 137 136 136
162 162 164 163 163 163 143 147 144 136 139 141 145 142 138 135 139 133 142 142 142 144 134 141 132 75 100 113 102 109 122 119 128 139 147 148 147 146 145 145 144 144 143
165 167 168 168 167 163 153 158 156 153 157 158 161 156 145 141 142 148 146 147 148 143 153 150 161 192 203 173 142 139 136 132 138 134 156 154 153 153 153 153 153 152 152
168 168 171 170 170 165 160 168 166 168 170 168 165 164 157 154 158 159 160 166 173 165 171 175 188 189 166 156 145 143 140 142 143 147 156 160 159 162 162 163 163 162 162
170 170 170 170 169 164 166 171 167 172 169 165 167 169 164 161 160 160 163 168 176 177 178 177 175 159 144 132 133 136 141 146 150 151 153 163 168 169 171 173 173 173 173
169 168 169 168 167 166 168 171 166 170 169 168 170 169 165 162 161 162 165 170 182 177 168 156 147 119 116 122 127 139 146 153 157 160 160 160 172 181 181 183 184 185 184
165 167 170 170 168 167 165 165 160 166 168 170 169 168 167 166 163 161 166 174 175 164 156 152 144 120 120 128 137 153 151 157 163 168 170 175 178 187 194 194 194 195 195
167 167 167 162 166 164 158 156 154 157 167 170 167 168 169 168 166 163 171 174 167 158 159 167 146 141 148 152 159 153 158 166 170 177 184 190 191 191 194 201 201 202 206
164 165 164 160 164 157 148 142 139 149 167 170 170 172 170 172 169 165 169 172 163 156 163 157 149 147 152 161 152 141 178 180 180 185 194 196 198 201 199 203 203 212 216
162 167 169 166 167 159 155 157 157 165 170 175 179 177 176 175 172 169 171 169 169 169 175 165 148 159 165 137 94 48 350 272 212 201 196 189 199 203 196 203 202 204 217
170 174 175 174 172 171 170 165 160 159 169 177 180 180 181 177 174 179 172 174 175 171 173 170 156 155 177 153 136 120 10 332 302 221 202 200 203 200 202 208 204 205 211
177 178 179 177 173 173 165 152 146 132 137 166 182 185 191 184 181 183 177 173 177 175 182 184 172 164 176 193 164 150 158 215 266 292 230 214 203 202 210 208 209 210 211
183 180 177 176 174 172 168 172 173 177 187 196 187 185 189 189 188 186 179 178 181 181 184 193 183 174 163 185 203 199 178 163 164 253 294 251 221 214 212 214 215 212 212
179 176 174 177 178 175 180 183 182 189 193 178 174 182 191 196 194 192 186 184 188 190 192 196 187 186 179 179 184 185 185 177 158 160 235 270 263 235 218 214 211 211 213
175 175 175 177 182 181 183 185 187 188 185 178 184 189 196 201 202 202 194 190 192 193 196 200 198 197 197 191 190 185 175 176 188 176 198 230 243 254 231 219 215 213 214